Coatesville, PA

3:09 AM EST on December 15, 2019 (GMT -0500)
Chester County Carlson

Weather History for KMQS - July, 2019

Change the Weather History Date:

Tuesday, July 16, 2019

  Actual Average (KILG) Record (KILG)
Temperature  
Mean Temperature 76 °F -  
Max Temperature 87 °F 87 °F 100 °F (1983)
Min Temperature 66 °F 68 °F 49 °F (1929)
Cooling Degree Days 12    
Growing Degree Days 26 (Base 50)    
Moisture  
Dew Point 68 °F    
Average Humidity 73    
Maximum Humidity 94    
Minimum Humidity 49    
Precipitation  
Precipitation 0.00 in - - ()
Sea Level Pressure  
Sea Level Pressure 30.10 in    
Wind  
Wind Speed 3 mph (West)    
Max Wind Speed 15 mph    
Max Gust Speed 24 mph    
Visibility 10 miles    
Events      
Averages and records for this station are not official NWS values.
T = Trace of Precipitation, MM = Missing Value Source: NWS Daily Summary

Daily Weather History Graph

Daily Weather History Graph

Search for Another Location

Airport or City:

Astronomy

Jul. 16, 2019 Rise Set
Actual Time 5:47 AM EDT 8:30 PM EDT
Civil Twilight 5:16 AM EDT 9:02 PM EDT
Nautical Twilight 4:36 AM EDT 9:42 PM EDT
Astronomical Twilight 3:51 AM EDT 10:27 PM EDT
Moon 8:35 PM EDT (7/16) 5:24 AM EDT (7/16)
Length of Visible Light 15h 46m
Length of Day
14h 42m
Full, 100% of the Moon is Illuminated
Jul 16
Full
Jul 16
Full
Jul 24
Last Quarter
Jul 31
New
Aug 7
First Quarter

Hourly Weather History & Observations

Time (EDT) Temp. Heat Index Dew Point Humidity Pressure Visibility Wind Dir Wind Speed Gust Speed Precip Events Conditions
12:15 AM 68.0 °F - 62.6 °F 83% 30.12 in - West 4.6 mph - N/A   Clear
12:35 AM 69.8 °F - 60.8 °F 73% 30.11 in 10.0 mi West 4.6 mph - N/A   Clear
12:55 AM 69.8 °F - 60.8 °F 73% 30.11 in 10.0 mi WSW 3.5 mph - N/A   Clear
1:15 AM 68.0 °F - 60.8 °F 78% 30.11 in 10.0 mi West 3.5 mph - N/A   Clear
1:35 AM 71.6 °F - 62.6 °F 73% 30.11 in 10.0 mi WSW 3.5 mph - N/A   Clear
1:55 AM 71.6 °F - 62.6 °F 73% 30.10 in 10.0 mi WSW 4.6 mph - N/A   Clear
2:15 AM 68.0 °F - 62.6 °F 83% 30.11 in 10.0 mi West 3.5 mph - N/A   Clear
2:35 AM 66.2 °F - 62.6 °F 88% 30.11 in 10.0 mi West 4.6 mph - N/A   Clear
2:55 AM 69.8 °F - 62.6 °F 78% 30.10 in 10.0 mi West 4.6 mph - N/A   Clear
3:15 AM 68.0 °F - 62.6 °F 83% 30.10 in 10.0 mi West 4.6 mph - N/A   Clear
3:35 AM 68.0 °F - 62.6 °F 83% 30.09 in 10.0 mi West 4.6 mph - N/A   Clear
3:55 AM 68.0 °F - 62.6 °F 83% 30.09 in 10.0 mi West 4.6 mph - N/A   Clear
4:15 AM 68.0 °F - 64.4 °F 88% 30.09 in 10.0 mi WSW 4.6 mph - N/A   Clear
4:35 AM 68.0 °F - 64.4 °F 88% 30.09 in 10.0 mi Variable 4.6 mph - N/A   Clear
4:55 AM 68.0 °F - 62.6 °F 83% 30.10 in 10.0 mi West 4.6 mph - N/A   Clear
5:15 AM 69.8 °F - 64.4 °F 83% 30.10 in 10.0 mi West 4.6 mph - N/A   Clear
5:35 AM 68.0 °F - 64.4 °F 88% 30.10 in 10.0 mi West 4.6 mph - N/A   Clear
5:55 AM 69.8 °F - 64.4 °F 83% 30.10 in 10.0 mi West 4.6 mph - N/A   Clear
6:15 AM 69.8 °F - 64.4 °F 83% 30.11 in 10.0 mi Calm Calm - N/A   Clear
6:35 AM 69.8 °F - 66.2 °F 88% 30.11 in 10.0 mi Calm Calm - N/A   Clear
6:55 AM 69.8 °F - 66.2 °F 88% 30.11 in 10.0 mi Calm Calm - N/A   Clear
7:15 AM 71.6 °F - 66.2 °F 83% 30.12 in 10.0 mi Calm Calm - N/A   Clear
7:35 AM 73.4 °F - 68.0 °F 83% 30.13 in 10.0 mi Calm Calm - N/A   Clear
7:55 AM 75.2 °F - 68.0 °F 78% 30.13 in 10.0 mi Calm Calm - N/A   Clear
8:15 AM 75.2 °F - 69.8 °F 83% 30.13 in 10.0 mi Calm Calm - N/A   Clear
8:35 AM 77.0 °F - 69.8 °F 78% 30.14 in 10.0 mi Calm Calm - N/A   Clear
8:55 AM 78.8 °F - 68.0 °F 69% 30.14 in 10.0 mi Calm Calm - N/A   Clear
9:15 AM 78.8 °F - 68.0 °F 69% 30.14 in 10.0 mi Variable 4.6 mph - N/A   Clear
9:35 AM 80.6 °F 83.2 °F 68.0 °F 65% 30.14 in 10.0 mi Variable 5.8 mph - N/A   Clear
9:55 AM 80.6 °F 83.2 °F 68.0 °F 65% 30.14 in 10.0 mi Variable 5.8 mph - N/A   Clear
10:15 AM 80.6 °F 83.2 °F 68.0 °F 65% 30.14 in 10.0 mi WSW 6.9 mph - N/A   Clear
10:35 AM 80.6 °F 83.2 °F 68.0 °F 65% 30.14 in 10.0 mi Variable 5.8 mph - N/A   Clear
10:55 AM 82.4 °F 86.3 °F 69.8 °F 66% 30.13 in 10.0 mi Variable 3.5 mph - N/A   Clear
11:15 AM 84.2 °F 87.3 °F 68.0 °F 58% 30.13 in 10.0 mi Variable 5.8 mph - N/A   Clear
11:35 AM 82.4 °F 85.4 °F 68.0 °F 62% 30.13 in 10.0 mi Variable 3.5 mph - N/A   Clear
11:55 AM 84.2 °F 86.6 °F 66.2 °F 55% 30.13 in 10.0 mi Calm Calm - N/A   Clear
12:15 PM 84.2 °F 86.6 °F 66.2 °F 55% 30.13 in 10.0 mi Variable 4.6 mph - N/A   Clear
12:35 PM 84.2 °F 86.6 °F 66.2 °F 55% 30.12 in 10.0 mi Variable 4.6 mph - N/A   Clear
12:55 PM 86.0 °F 88.2 °F 66.2 °F 51% 30.12 in - West 6.9 mph - N/A   Clear
1:15 PM 86.0 °F 88.2 °F 66.2 °F 51% 30.11 in 10.0 mi Calm Calm - N/A   Clear
1:35 PM 86.0 °F 89.4 °F 68.0 °F 55% 30.10 in 10.0 mi Variable 4.6 mph - N/A   Clear
1:50 PM 86.0 °F 88.2 °F 66.2 °F 51% 30.10 in 10.0 mi Variable 4.6 mph - N/A   Clear
2:15 PM 86.0 °F 88.2 °F 66.2 °F 51% 30.10 in 10.0 mi Variable 4.6 mph - N/A   Clear
2:35 PM 86.0 °F 88.2 °F 66.2 °F 51% 30.09 in 10.0 mi Variable 4.6 mph - N/A   Clear
2:55 PM 87.8 °F 90.4 °F 66.2 °F 49% 30.09 in 10.0 mi SW 4.6 mph - N/A   Clear
3:15 PM 87.8 °F 91.4 °F 68.0 °F 52% 30.08 in 10.0 mi Variable 5.8 mph - N/A   Clear
3:35 PM 87.8 °F 91.4 °F 68.0 °F 52% 30.07 in 10.0 mi Variable 4.6 mph - N/A   Clear
3:55 PM 87.8 °F 91.4 °F 68.0 °F 52% 30.07 in 10.0 mi Variable 5.8 mph - N/A   Clear
4:15 PM 87.8 °F 92.6 °F 69.8 °F 55% 30.07 in 10.0 mi Variable 4.6 mph - N/A   Clear
4:35 PM 86.0 °F 90.4 °F 69.8 °F 58% 30.07 in 10.0 mi Variable 3.5 mph - N/A   Clear
4:55 PM 84.2 °F 88.4 °F 69.8 °F 62% 30.06 in 10.0 mi Calm Calm - N/A   Clear
5:15 PM 84.2 °F 89.6 °F 71.6 °F 66% 30.06 in 10.0 mi Calm Calm - N/A   Clear
5:35 PM 84.2 °F 89.6 °F 71.6 °F 66% 30.05 in 10.0 mi Calm Calm - N/A   Clear
5:55 PM 84.2 °F 90.9 °F 73.4 °F 70% 30.05 in 10.0 mi Calm Calm - N/A   Light Drizzle
6:15 PM 84.2 °F 89.6 °F 71.6 °F 66% 30.06 in 10.0 mi Calm Calm - N/A   Clear
6:35 PM 84.2 °F 89.6 °F 71.6 °F 66% 30.06 in 10.0 mi Calm Calm - N/A   Clear
6:55 PM 84.2 °F 90.9 °F 73.4 °F 70% 30.06 in 10.0 mi Calm Calm - N/A   Clear
7:15 PM 82.4 °F 88.2 °F 73.4 °F 74% 30.06 in 10.0 mi Calm Calm - N/A   Clear
7:35 PM 82.4 °F 88.2 °F 73.4 °F 74% 30.06 in 10.0 mi Calm Calm - N/A   Clear
7:55 PM 82.4 °F 87.2 °F 71.6 °F 70% 30.06 in 10.0 mi Calm Calm - N/A   Scattered Clouds
8:15 PM 80.6 °F 83.9 °F 69.8 °F 70% 30.08 in 10.0 mi NW 15.0 mph 24.2 mph N/A   Mostly Cloudy
8:35 PM 75.2 °F - 71.6 °F 89% 30.07 in 7.0 mi NNW 8.1 mph - N/A   Light Drizzle
8:55 PM 75.2 °F - 71.6 °F 89% 30.07 in 10.0 mi NNW 5.8 mph - N/A   Clear
9:15 PM 75.2 °F - 71.6 °F 89% 30.07 in 10.0 mi Calm Calm - N/A   Clear
9:35 PM 75.2 °F - 71.6 °F 89% 30.08 in 10.0 mi Calm Calm - N/A   Clear
9:55 PM 73.4 °F - 71.6 °F 94% 30.08 in 10.0 mi Calm Calm - N/A   Clear
10:15 PM 73.4 °F - 71.6 °F 94% 30.09 in 10.0 mi SE 3.5 mph - N/A   Clear
10:35 PM 75.2 °F - 71.6 °F 89% 30.08 in 10.0 mi Calm Calm - N/A   Clear
10:55 PM 75.2 °F - 71.6 °F 89% 30.08 in 10.0 mi Calm Calm - N/A   Clear
11:15 PM 75.2 °F - 69.8 °F 83% 30.07 in 10.0 mi Calm Calm - N/A   Clear
11:35 PM 75.2 °F - 69.8 °F 83% 30.07 in 10.0 mi Calm Calm - N/A   Clear
11:55 PM 75.2 °F - 69.8 °F 83% 30.06 in 10.0 mi Calm Calm - N/A   Clear